Weather History for Fort Meade, MD

Change the Weather History Date:

Thursday, April 17, 2014

  Actual Average (KBWI) Record (KBWI)
Temperature  
Mean Temperature 40 °F 54 °F  
Max Temperature 51 °F 65 °F 93 °F (2002)
Min Temperature 28 °F 43 °F 26 °F (1962)
Degree Days  
Heating Degree Days 26 11  
Month to date heating degree days 233  
Since 1 July heating degree days 4494  
Cooling Degree Days 0 0  
Month to date cooling degree days 0  
Year to date cooling degree days 1  
Moisture  
Dew Point 31 °F    
Average Humidity 69    
Maximum Humidity 100    
Minimum Humidity 47    
Precipitation  
Precipitation 0.00 in 0.10 in 3.39 in (1910)
Month to date precipitation 1.85  
Year to date precipitation 11.70  
Snow  
Snow 0.00 in 0.00 in T in (2001)
Month to date snowfall 0.0  
Since 1 July snowfall 20.1  
Snow Depth -    
Sea Level Pressure  
Sea Level Pressure 30.62 in    
Wind  
Wind Speed 4 mph (East)    
Max Wind Speed 13 mph    
Max Gust Speed 22 mph    
Visibility 10 miles    
Events      
T = Trace of Precipitation, MM = Missing Value Source: NWS Daily Summary

Daily Weather History Graph

Daily Weather History Graph

Search for Another Location

Airport:

Trip Planner

Search our weather history database for the weather conditions in past years. The results will help you decide how hot, cold, wet, or windy it might be!

Date:

Astronomy

Apr. 17, 2014 Rise Set
Actual Time 6:27 AM EDT 7:46 PM EDT
Civil Twilight 5:59 AM EDT 8:14 PM EDT
Nautical Twilight 5:26 AM EDT 8:47 PM EDT
Astronomical Twilight 4:51 AM EDT 9:22 PM EDT
Moon 10:28 PM EDT (4/17) 7:58 AM EDT (4/17)
Length of Visible Light 14h 14m
Length of Day
13h 18m
Waning Gibbous, 94% of the Moon is Illuminated
Apr 17
Waning Gibbous
Apr 22
Last Quarter
Apr 29
New
May 6
First Quarter
May 14
Full

Hourly Weather History & Observations

Time (EDT) Temp. Windchill Dew Point Humidity Pressure Visibility Wind Dir Wind Speed Gust Speed Precip Events Conditions
12:15 AM 32.0 °F - 28.4 °F 87% 30.56 in 10.0 mi Calm Calm - N/A   Clear
12:33 AM 32.0 °F - 28.4 °F 87% 30.57 in 10.0 mi Calm Calm - N/A   Clear
12:54 AM 32.0 °F - 28.4 °F 87% 30.57 in 10.0 mi Calm Calm - N/A   Clear
1:15 AM 30.2 °F - 28.4 °F 93% 30.57 in 10.0 mi Calm Calm - N/A   Clear
1:33 AM 30.2 °F - 28.4 °F 93% 30.57 in 10.0 mi Calm Calm - N/A   Clear
3:33 AM 30.2 °F - 28.4 °F 93% 30.58 in 10.0 mi Calm Calm - N/A   Clear
3:54 AM 28.4 °F - 26.6 °F 93% 30.58 in 10.0 mi Calm Calm - N/A   Clear
4:15 AM 30.2 °F - 28.4 °F 93% 30.59 in 10.0 mi Calm Calm - N/A   Clear
4:36 AM 30.2 °F - 28.4 °F 93% 30.59 in 10.0 mi Calm Calm - N/A   Clear
4:54 AM 30.2 °F - 28.4 °F 93% 30.60 in 10.0 mi Calm Calm - N/A   Clear
5:15 AM 30.2 °F - 28.4 °F 93% 30.60 in 10.0 mi Calm Calm - N/A   Clear
5:36 AM 28.4 °F - 28.4 °F 100% 30.60 in 10.0 mi Calm Calm - N/A   Clear
5:54 AM 30.2 °F - 28.4 °F 93% 30.61 in 10.0 mi Calm Calm - N/A   Clear
6:15 AM 28.4 °F - 28.4 °F 100% 30.62 in 10.0 mi Calm Calm - N/A   Clear
6:36 AM 30.2 °F - 28.4 °F 93% 30.63 in 10.0 mi Calm Calm - N/A   Clear
6:54 AM 30.2 °F - 28.4 °F 93% 30.64 in 10.0 mi Calm Calm - N/A   Clear
7:15 AM 30.2 °F - 28.4 °F 93% 30.65 in 10.0 mi Calm Calm - N/A   Clear
7:36 AM 32.0 °F - 30.2 °F 93% 30.66 in 10.0 mi Calm Calm - N/A   Clear
7:54 AM 33.8 °F 30.8 °F 32.0 °F 93% 30.66 in 10.0 mi ENE 3.5 mph - N/A   Clear
8:15 AM 39.2 °F 34.2 °F 30.2 °F 70% 30.66 in 10.0 mi ENE 6.9 mph - N/A   Clear
8:36 AM 41.0 °F 36.4 °F 30.2 °F 65% 30.67 in 10.0 mi ENE 6.9 mph - N/A   Clear
8:54 AM 42.8 °F 37.5 °F 30.2 °F 61% 30.67 in 10.0 mi ESE 9.2 mph - N/A   Clear
9:15 AM 42.8 °F 37.5 °F 30.2 °F 61% 30.68 in 10.0 mi ESE 9.2 mph 16.1 mph N/A   Clear
9:36 AM 44.6 °F 40.2 °F 30.2 °F 57% 30.68 in 10.0 mi East 8.1 mph - N/A   Clear
9:54 AM 46.4 °F 41.1 °F 28.4 °F 50% 30.68 in 10.0 mi East 11.5 mph - N/A   Clear
10:15 AM 46.4 °F 40.7 °F 28.4 °F 50% 30.69 in 10.0 mi ESE 12.7 mph - N/A   Clear
10:36 AM 46.4 °F 43.5 °F 30.2 °F 53% 30.68 in 10.0 mi SE 5.8 mph 9.2 mph N/A   Clear
10:54 AM 48.2 °F - 30.2 °F 50% 30.69 in 10.0 mi East 10.4 mph - N/A   Scattered Clouds
11:15 AM 46.4 °F 41.5 °F 30.2 °F 53% 30.68 in 10.0 mi East 10.4 mph - N/A   Scattered Clouds
11:36 AM 48.2 °F - 32.0 °F 54% 30.68 in 10.0 mi SSE 5.8 mph 17.3 mph N/A   Scattered Clouds
12:15 PM 50.0 °F - 32.0 °F 50% 30.67 in 10.0 mi ENE 8.1 mph - N/A   Overcast
12:36 PM 48.2 °F - 32.0 °F 54% 30.66 in 10.0 mi ESE 11.5 mph 16.1 mph N/A   Mostly Cloudy
1:15 PM 50.0 °F - 32.0 °F 50% 30.65 in 10.0 mi ENE 9.2 mph - N/A   Mostly Cloudy
1:36 PM 50.0 °F - 32.0 °F 50% 30.65 in 10.0 mi East 6.9 mph 16.1 mph N/A   Scattered Clouds
1:57 PM 51.8 °F - 32.0 °F 47% 30.64 in 10.0 mi East 10.4 mph 17.3 mph N/A   Mostly Cloudy
2:15 PM 50.0 °F - 32.0 °F 50% 30.64 in 10.0 mi NE 5.8 mph 16.1 mph N/A   Mostly Cloudy
2:36 PM 50.0 °F - 32.0 °F 50% 30.63 in 10.0 mi ESE 9.2 mph - N/A   Scattered Clouds
2:57 PM 51.8 °F - 32.0 °F 47% 30.63 in 10.0 mi East 11.5 mph - N/A   Clear
3:15 PM 51.8 °F - 32.0 °F 47% 30.62 in 10.0 mi East 11.5 mph - N/A   Scattered Clouds
3:36 PM 51.8 °F - 32.0 °F 47% 30.61 in 10.0 mi ESE 10.4 mph - N/A   Clear
3:57 PM 51.8 °F - 32.0 °F 47% 30.60 in 10.0 mi East 12.7 mph 18.4 mph N/A   Clear
4:15 PM 51.8 °F - 32.0 °F 47% 30.60 in 10.0 mi East 11.5 mph 18.4 mph N/A   Clear
4:36 PM 50.0 °F - 32.0 °F 50% 30.60 in 10.0 mi ESE 10.4 mph 17.3 mph N/A   Clear
4:57 PM 50.0 °F - 32.0 °F 50% 30.60 in 10.0 mi ENE 10.4 mph - N/A   Clear
5:15 PM 50.0 °F - 32.0 °F 50% 30.60 in 10.0 mi East 9.2 mph 21.9 mph N/A   Clear
5:36 PM 50.0 °F - 32.0 °F 50% 30.59 in 10.0 mi ENE 11.5 mph 17.3 mph N/A   Clear
5:57 PM 50.0 °F - 32.0 °F 50% 30.60 in 10.0 mi East 11.5 mph 16.1 mph N/A   Clear
6:15 PM 48.2 °F - 30.2 °F 50% 30.60 in 10.0 mi ESE 9.2 mph - N/A   Clear
6:36 PM 48.2 °F - 32.0 °F 54% 30.60 in 10.0 mi East 9.2 mph - N/A   Clear
6:57 PM 46.4 °F 41.1 °F 32.0 °F 57% 30.60 in 10.0 mi East 11.5 mph - N/A   Clear
7:15 PM 46.4 °F 41.9 °F 32.0 °F 57% 30.60 in 10.0 mi East 9.2 mph - N/A   Clear
7:36 PM 44.6 °F 39.7 °F 32.0 °F 61% 30.59 in 10.0 mi East 9.2 mph - N/A   Clear
7:57 PM 44.6 °F 39.7 °F 32.0 °F 61% 30.60 in 10.0 mi ESE 9.2 mph - N/A   Clear
8:15 PM 42.8 °F 37.0 °F 32.0 °F 66% 30.59 in 10.0 mi ESE 10.4 mph - N/A   Clear
8:36 PM 42.8 °F 38.0 °F 32.0 °F 66% 30.60 in 10.0 mi ESE 8.1 mph - N/A   Clear
8:57 PM 41.0 °F 34.7 °F 32.0 °F 70% 30.60 in 10.0 mi ESE 10.4 mph - N/A   Clear
9:18 PM 41.0 °F 35.2 °F 32.0 °F 70% 30.60 in 10.0 mi ESE 9.2 mph - N/A   Clear
9:36 PM 41.0 °F 36.4 °F 32.0 °F 70% 30.61 in 10.0 mi SE 6.9 mph - N/A   Clear
9:57 PM 41.0 °F 36.4 °F 32.0 °F 70% 30.61 in 10.0 mi East 6.9 mph - N/A   Clear
10:18 PM 39.2 °F 33.6 °F 32.0 °F 75% 30.62 in 10.0 mi ESE 8.1 mph - N/A   Scattered Clouds
10:36 PM 39.2 °F 35.9 °F 32.0 °F 75% 30.61 in 10.0 mi ESE 4.6 mph - N/A   Mostly Cloudy
10:57 PM 37.4 °F 33.8 °F 32.0 °F 81% 30.62 in 10.0 mi ESE 4.6 mph - N/A   Mostly Cloudy
11:18 PM 37.4 °F 34.9 °F 32.0 °F 81% 30.62 in 10.0 mi ESE 3.5 mph - N/A   Scattered Clouds
11:36 PM 35.6 °F - 32.0 °F 87% 30.62 in 10.0 mi Calm Calm - N/A   Clear
11:57 PM 33.8 °F - 30.2 °F 87% 30.63 in 10.0 mi Calm Calm - N/A   Clear